THORAD DELTA 1 DEB, 8163

Orbit data source: Space-Track

THORAD DELTA 1 DEB, 8163 is space debris in SSO originally from a launch on Fri, 15 Nov 1974 UTC launched from the Air Force Western Test Range (AFWTR). Debris objects in space refer to the collection of defunct objects orbiting the Earth. Examples of debris include non-operational satellites, rocket bodies, and fragments generated from explosions, collisions, or faulty payload assembly.

Loading next visibility...
THORAD DELTA 1 DEB details
Identifier
8163, 1974-089AD
Orbit
SSO
Last TLE update14 hours ago
Origin
Flag of USGSFC (US)
ManufacturerUnknown
MissionSpacecraft
Bus & MotorUnknown
MassUnknown
Launch date (UTC)
1974-11-15 (50 years ago)
Launch vehicleUnknown
Launch site
Air Force Western Test Range (AFWTR)
Object type
Payload
Rocket body
Debris
Shape & HBRUnknown
Radar Cross SectionSmall (<0.1 m²)

Expand to show TLE details & history

TLE from 14 hours ago
0 THORAD DELTA 1 DEB
1  8163U 74089AD  24360.89186378  .00001301  00000-0  84583-2 0  9996
2  8163 102.5001 358.0051 0335476 319.5264  38.1280 12.38704534244491
Epoch: 2024-12-25T21:24Z
Definitive object data (Epoch: 2024-12-25T21:24:17.03Z)
Latitude0.00001°
Longitude-57.94496°
Altitude1,309.903 km
Speed7.295 km/s
True Right ascension23h 52m 01s
True Declination0° 00' 00"
Sunlit
Object was in daylight at TLE epoch
Visualization TLE readout
Latitude77.11175°
Longitude-162.70329°
Altitude1,707.424 km
Speed6.947 km/s
Apparent Right ascension21h 29m 07s
Apparent Declination35° 50' 33"
Sunlit
Object is in daylight
Visualization observer readout
Local Sidereal Time10:49:45
Azimuth16.596° NNE
Elevation-12°
Doppler factor1
Orbital elements
Apogee altitude1,774.32 km
Perigee altitude1,245.084 km
Semi-major axis7,887.839 km
Eccentricity0.0335476
Inclination102.5001°
RAAN358.0051°
Arg. of periapsis319.5264°
True anomaly40.58163°
Mean anomaly38.128°
Eccentric anomaly39.34665°
Mean motion3.09818 °/min
BSTAR0.0084583
Orbital period116.2 mins
Loading maneuver chart data...

THORAD DELTA 1 DEB Visibility forecast

Observer location: undefined°, undefined

Span
Click to sort rows by Start time (UTC) header in descending order
Start Az.
Max El. time (UTC)
Max El. Az.
Max El.
End time (UTC)
End Az.
16 mins2024-12-26 11:37:24.214Z39.172° NE2024-12-26 11:45:24.214Z96.36° ESE26.954°2024-12-26 11:53:24.214Z153.103° SSE
18 mins2024-12-26 13:31:24.214Z12.789° NNE2024-12-26 13:39:24.214Z305.93° NW43.228°2024-12-26 13:49:24.214Z212.96° SW
10 mins2024-12-26 15:27:24.214Z344.985° N2024-12-26 15:32:24.214Z309.924° NW18.523°2024-12-26 15:37:24.214Z277.286° WNW
14 mins2024-12-26 22:44:24.214Z122.02° SE2024-12-26 22:50:24.214Z61.934° ENE34.199°2024-12-26 22:58:24.214Z353.75° N
14 mins2024-12-27 00:38:24.214Z194.72° SSW2024-12-27 00:44:24.214Z259.376° W34.905°2024-12-27 00:52:24.214Z329.437° NNW
8 mins2024-12-27 10:57:24.214Z64.79° ENE2024-12-27 11:01:24.214Z90.979° ESE14.88°2024-12-27 11:05:24.214Z116.686° SE
|